Location: Unspecified
(49.2170°N, 0.0000°E)
Time: 15:42:39
(UTC+00:00)

Tiros 1 despin weight - Pass Details

Date: 22 January 2021
Orbit: 593 x 642 km, 48.2° (Epoch: 07 March)

Event Time Altitude Azimuth Distance (km) Brightness Sun altitude
Rises 18:02:26 0° 270° (W) 2,862 ? -13.2°
Reaches altitude 10° 18:04:45 10° 269° (W) 1,950 ? -13.5°
Maximum altitude 18:09:13 79° 184° (S) 615 ? -14.2°
Enters shadow 18:12:00 22° 100° (E) 1,302 ? -14.7°
Drops below altitude 10° 18:13:38 10° 98° (E) 1,929 - -14.9°
Sets 18:15:55 0° 97° (E) 2,827 - -15.3°
